This demonstration page uses our WeatherBlox Daily Observations layout. Learn more.

Left ArrowRight Arrow

Hourly Observations for September 22, 2021

Temp ( °F °C ) Dew Point ( °F °C ) Humidity (%) Winds ( mph kmh ) Pressure ( in mb ) Visibility ( mi km ) Precip ( " mm )
12:15 am 00:15 Cloudy 57 14 57 14 100 100 N 16 26 30.05 1018 4 6 N/A
12:35 am 00:35 Cloudy 57 14 57 14 100 100 NNW 12 19 30.05 1018 5 8 N/A
12:55 am 00:55 Cloudy 57 14 57 14 100 100 N 20 31 30.04 1017 3 4 N/A
1:15 am 01:15 Cloudy 57 14 57 14 100 100 N 21 33 30.02 1017 5 8 N/A
1:35 am 01:35 Cloudy 55 13 55 13 100 100 N 17 28 30.00 1016 5 8 N/A
1:55 am 01:55 Cloudy 55 13 55 13 100 100 N 15 24 29.99 1016 5 8 N/A
2:15 am 02:15 Cloudy 55 13 55 13 100 100 N 13 20 29.99 1016 4 6 N/A
2:35 am 02:35 Cloudy 57 14 57 14 100 100 N 9 15 30.00 1016 7 11 N/A
2:55 am 02:55 Cloudy 55 13 55 13 100 100 N 15 24 29.99 1016 5 8 N/A
3:15 am 03:15 Cloudy 55 13 55 13 100 100 N 15 24 29.99 1016 3 4 N/A
3:35 am 03:35 Cloudy 55 13 55 13 100 100 NNW 9 15 30.00 1016 3 4 N/A
3:55 am 03:55 Cloudy 55 13 55 13 100 100 NNW 9 15 30.00 1016 2 3 N/A
4:15 am 04:15 Cloudy 55 13 55 13 100 100 NW 12 19 30.00 1016 5 8 N/A
4:35 am 04:35 Cloudy 55 13 55 13 100 100 NW 12 19 30.01 1016 5 8 N/A
4:55 am 04:55 Cloudy 55 13 55 13 100 100 NNW 13 20 30.01 1016 7 11 N/A
5:15 am 05:15 Cloudy 55 13 55 13 100 100 NNW 14 22 30.03 1017 3 5 N/A
5:35 am 05:35 Cloudy 55 13 55 13 100 100 NNW 12 19 30.02 1017 7 11 N/A
5:55 am 05:55 Cloudy 55 13 55 13 100 100 NNW 12 19 30.01 1016 10 16 N/A
6:15 am 06:15 Cloudy 55 13 55 13 100 100 N 13 20 29.99 1016 7 11 N/A
6:35 am 06:35 Cloudy 55 13 55 13 100 100 N 14 22 29.99 1016 10 16 N/A
6:55 am 06:55 Cloudy 55 13 55 13 100 100 N 13 20 30.01 1016 10 16 N/A
7:15 am 07:15 Cloudy 55 13 55 13 100 100 N 14 22 29.99 1016 10 16 N/A
7:35 am 07:35 Cloudy 55 13 55 13 100 100 N 10 17 29.99 1016 10 16 N/A
7:55 am 07:55 Cloudy 54 12 54 12 100 100 NNE 16 26 29.96 1015 10 16 N/A
8:15 am 08:15 Cloudy 54 12 54 12 100 100 N 16 26 29.95 1014 10 16 N/A
8:35 am 08:35 Cloudy 54 12 54 12 100 100 N 17 28 29.94 1014 10 16 N/A
8:55 am 08:55 Cloudy 54 12 54 12 100 100 N 12 19 29.98 1015 10 16 N/A
9:15 am 09:15 Cloudy 54 12 54 12 100 100 N 9 15 30.01 1016 7 11 N/A
9:35 am 09:35 Cloudy 54 12 54 12 100 100 NNW 8 13 30.03 1017 5 8 N/A
9:55 am 09:55 Cloudy 54 12 54 12 100 100 N 15 24 29.98 1015 7 11 N/A
10:15 am 10:15 Cloudy 54 12 54 12 100 100 NNE 20 31 29.93 1014 10 16 N/A
10:35 am 10:35 Cloudy 54 12 54 12 100 100 N 13 20 29.95 1014 10 16 N/A
10:55 am 10:55 Cloudy 54 12 54 12 100 100 NNW 8 13 30.00 1016 10 16 N/A
11:15 am 11:15 Cloudy 54 12 54 12 100 100 N 9 15 30.00 1016 10 16 N/A
11:35 am 11:35 Cloudy 54 12 54 12 100 100 N 12 19 29.98 1015 7 11 N/A
11:55 am 11:55 Cloudy 54 12 54 12 100 100 N 16 26 29.96 1015 7 11 N/A
12:15 pm 12:15 Cloudy 54 12 54 12 100 100 N 15 24 29.94 1014 7 11 N/A
12:35 pm 12:35 Cloudy 54 12 54 12 100 100 N 15 24 29.93 1014 10 16 N/A
12:55 pm 12:55 Cloudy 54 12 54 12 100 100 N 15 24 29.94 1014 7 11 N/A
1:15 pm 13:15 Cloudy 54 12 54 12 100 100 NNW 12 19 29.96 1015 5 8 N/A
1:35 pm 13:35 Cloudy 54 12 54 12 100 100 N 13 20 29.94 1014 7 11 N/A
1:55 pm 13:55 Cloudy 54 12 54 12 100 100 WNW 10 17 29.94 1014 5 8 N/A
2:15 pm 14:15 Cloudy 54 12 54 12 100 100 WNW 12 19 29.95 1014 5 8 N/A
2:35 pm 14:35 Cloudy 54 12 54 12 100 100 WNW 13 20 29.94 1014 2 2 N/A
2:55 pm 14:55 Cloudy 52 11 52 11 100 100 WNW 12 19 29.95 1014 1 1 N/A
3:15 pm 15:15 Cloudy 52 11 52 11 100 100 WNW 14 22 29.96 1014 2 3 N/A
3:35 pm 15:35 Cloudy 52 11 52 11 100 100 WNW 17 28 29.96 1014 2 3 N/A
3:55 pm 15:55 Cloudy 52 11 52 11 100 100 NW 21 33 29.97 1015 3 5 N/A
4:15 pm 16:15 Cloudy 52 11 52 11 100 100 NW 20 31 29.97 1015 4 6 N/A
4:35 pm 16:35 Cloudy 52 11 52 11 100 100 NW 17 28 29.97 1015 5 8 N/A
4:55 pm 16:55 Cloudy 52 11 52 11 100 100 NW 17 28 29.97 1015 4 6 N/A
5:15 pm 17:15 Cloudy 52 11 52 11 100 100 NW 24 39 29.98 1015 3 5 N/A
5:35 pm 17:35 Cloudy 52 11 52 11 100 100 NW 23 37 29.98 1015 3 5 N/A
5:55 pm 17:55 Cloudy 52 11 52 11 100 100 NNW 16 26 29.98 1015 3 5 N/A
6:15 pm 18:15 Cloudy 52 11 52 11 100 100 NNW 20 31 29.97 1015 3 5 N/A
6:35 pm 18:35 Cloudy N/A N/A N/A NNW 18 30 N/A 3 5 N/A
6:55 pm 18:55 Cloudy N/A N/A N/A NW 17 28 N/A 5 8 N/A
7:15 pm 19:15 Cloudy N/A N/A N/A NNW 21 33 N/A 7 11 N/A
7:35 pm 19:35 Cloudy N/A N/A N/A NNW 18 30 N/A 7 11 N/A
7:55 pm 19:55 Cloudy N/A N/A N/A NNW 16 26 N/A 10 16 N/A
8:15 pm 20:15 Cloudy N/A N/A N/A NW 15 24 N/A 10 16 N/A
8:35 pm 20:35 Mostly Cloudy N/A N/A N/A NNW 15 24 N/A 10 16 N/A
8:55 pm 20:55 Cloudy N/A N/A N/A NNW 14 22 N/A 10 16 N/A
9:15 pm 21:15 Cloudy N/A N/A N/A NW 15 24 N/A 10 16 N/A
9:35 pm 21:35 Cloudy N/A N/A N/A NNW 14 22 N/A 10 16 N/A
9:55 pm 21:55 Cloudy N/A N/A N/A NW 14 22 N/A 10 16 N/A
10:15 pm 22:15 Cloudy N/A N/A N/A NW 12 19 N/A 10 16 N/A
10:35 pm 22:35 Cloudy N/A N/A N/A NNW 12 19 N/A 10 16 N/A
10:55 pm 22:55 Cloudy N/A N/A N/A NW 10 17 N/A 10 16 N/A
11:15 pm 23:15 Cloudy N/A N/A N/A NW 10 17 N/A 10 16 N/A
11:35 pm 23:35 Cloudy N/A N/A N/A WNW 12 19 N/A 10 16 N/A
11:55 pm 23:55 Cloudy N/A N/A N/A W 12 19 N/A 10 16 N/A

Powered by AerisWeather